Kuchera_Ratio
7.1 7.3 9.3 10.5 10.3 10.1 10.1 9.7 8.9 7.1 5.3 4.1 3.5 3.3 2.3 0.3 0.0 0.0 0.0 0.0 0.0 0.0 0.0 0.0 0.0 0.0 0.0 0.0 0.0 0.0 0.0 0.0 0.0 0.0 0.0 0.0 0.0 0.0 0.0 0.0 0.0 0.0 0.0
9.3 10.3 12.4 12.5 12.1 12.2 12.1 11.1 9.7 9.1 6.7 6.5 4.9 4.9 4.3 3.3 1.9 0.7 0.3 0.0 0.0 0.0 0.0 0.0 0.0 0.0 0.0 0.0 0.0 0.0 0.0 0.0 0.0 0.0 0.0 0.0 0.0 0.0 0.0 0.0 0.0 0.0 0.0
12.4 12.8 13.1 13.6 13.5 13.4 13.0 12.1 10.5 10.3 9.1 8.1 7.3 7.3 7.3 6.1 5.1 4.1 3.7 3.5 3.5 3.0 1.9 0.0 0.0 0.0 0.0 0.0 0.0 0.0 0.0 0.0 0.0 0.0 0.0 0.0 0.0 0.0 0.0 0.0 0.0 0.0 0.0
13.0 13.1 13.1 12.8 13.6 13.7 12.9 12.3 11.3 9.1 10.5 10.1 9.5 8.3 8.3 8.1 7.5 6.5 6.3 6.3 5.8 5.1 5.0 3.7 1.6 0.0 0.0 0.0 0.0 0.0 0.0 0.0 0.0 0.0 0.0 0.0 0.0 0.0 0.0 0.0 0.0 0.0 0.0
13.1 13.3 13.3 13.5 13.5 13.2 13.0 12.4 11.9 11.3 11.5 10.3 9.3 9.3 7.9 8.3 9.3 10.5 9.5 9.3 8.9 8.1 6.9 5.9 4.2 2.8 1.8 0.0 0.0 0.0 0.0 0.0 0.0 0.0 0.0 0.0 0.0 0.0 0.0 0.0 0.0 0.0 0.0
13.4 13.6 13.7 13.8 13.7 13.6 13.4 13.2 13.2 12.8 12.6 12.8 12.0 11.1 11.7 10.7 9.3 9.3 10.5 9.6 9.9 9.3 8.9 9.3 8.7 7.3 4.8 3.6 2.3 0.0 0.0 0.0 0.0 0.0 0.0 0.0 0.0 0.0 0.0 0.0 0.0 0.0 0.0
13.7 13.9 14.0 14.1 13.9 13.9 13.8 13.6 13.5 13.2 13.2 12.7 12.7 12.4 12.6 12.1 9.7 10.1 11.7 11.2 11.3 10.6 11.2 10.7 10.7 10.5 9.7 9.3 7.7 4.6 3.1 1.9 1.1 0.0 0.0 0.0 0.0 0.0 0.0 0.0 0.0 0.0 0.0
13.1 13.8 14.1 14.2 14.1 14.3 13.9 13.8 14.1 14.2 13.9 13.8 13.6 13.4 12.6 12.3 11.7 12.1 12.4 12.7 12.8 12.2 12.3 11.5 9.8 10.7 10.8 10.4 10.2 9.2 8.0 6.5 5.2 5.2 5.8 4.4 2.4 1.3 0.0 0.0 0.0 0.0 0.0
13.6 13.5 13.2 14.3 14.5 14.5 14.3 14.5 14.6 14.7 14.6 14.5 14.6 14.1 14.1 13.3 12.1 13.1 13.4 13.4 13.1 12.7 12.7 12.5 12.4 12.2 12.1 9.8 11.1 12.1 11.7 11.5 11.9 10.3 10.3 10.1 9.9 7.9 6.4 5.2 4.4 4.8 2.1
14.1 14.2 12.8 13.0 14.0 14.6 14.7 14.7 14.4 14.6 14.5 14.6 14.3 14.2 14.1 14.2 12.7 13.1 14.1 13.7 13.2 13.0 13.0 13.0 12.7 12.6 12.9 12.5 12.4 12.0 12.2 12.5 12.6 13.0 13.3 12.7 12.6 12.4 11.5 10.9 11.0 10.4 7.9
14.6 14.2 14.7 13.6 14.3 14.4 14.2 14.1 14.0 14.5 14.9 14.6 14.6 14.6 14.6 14.6 14.3 13.6 14.1 13.8 13.2 14.0 13.7 13.3 13.1 13.1 13.2 13.6 13.7 13.5 13.1 13.1 12.9 13.0 13.0 13.3 12.9 12.4 12.7 13.0 12.6 13.0 13.1
15.4 15.7 15.0 14.9 14.8 15.2 15.5 14.7 14.7 14.4 14.8 14.7 14.9 14.8 14.2 14.5 14.4 14.3 14.6 14.6 14.7 14.6 13.6 13.4 13.7 14.3 15.0 15.2 15.2 15.2 15.4 15.5 15.7 15.4 15.0 15.0 14.6 14.3 13.6 12.5 12.1 11.7 11.9
16.1 15.5 14.9 14.9 15.0 15.1 14.9 14.9 14.6 15.1 15.1 15.0 15.1 15.1 14.9 14.4 14.4 15.2 15.2 15.4 15.6 15.3 15.2 15.2 15.5 15.5 15.3 15.2 15.3 15.4 15.8 16.5 16.6 16.5 16.3 16.0 15.9 14.9 14.0 13.8 12.7 11.5 9.9
16.1 15.5 15.4 15.4 15.4 15.3 13.7 13.5 13.9 14.8 15.4 15.6 15.8 15.7 15.9 15.4 15.1 14.9 15.7 16.5 16.9 17.1 16.8 16.4 16.1 16.1 16.5 17.0 17.4 17.1 16.7 16.4 16.2 16.3 16.7 16.8 16.7 16.1 15.3 14.2 15.1 14.2 13.2
15.5 15.6 15.0 15.1 15.7 15.1 14.7 13.7 13.7 13.5 13.6 15.2 15.6 15.4 16.4 16.8 15.6 14.9 15.4 16.8 17.7 18.2 17.9 17.9 18.6 18.6 18.3 18.0 17.9 18.0 18.5 18.8 18.5 18.2 18.0 18.1 18.5 17.7 17.2 15.3 15.4 15.3 16.1
14.5 14.5 14.6 14.6 14.3 14.6 14.6 15.0 13.9 13.6 13.4 13.4 13.2 14.0 14.4 14.1 14.3 14.9 15.5 15.8 17.0 17.7 18.3 19.6 19.5 19.4 19.4 19.4 19.5 19.5 19.5 19.5 19.7 20.3 20.3 20.4 20.4 19.2 18.7 17.1 16.5 17.0 17.5
14.1 14.2 14.4 14.3 14.5 15.1 15.5 15.6 16.3 15.4 15.1 15.0 14.6 14.3 14.1 14.7 14.7 15.2 16.0 16.6 16.8 17.0 18.9 19.5 20.2 20.1 19.8 19.7 20.1 20.4 21.2 21.0 20.9 20.7 21.0 21.2 21.4 20.2 19.5 18.9 18.5 18.6 18.4
15.2 16.7 15.2 15.3 15.3 15.7 16.0 16.7 16.8 17.6 18.0 17.9 16.8 16.8 15.8 16.0 16.5 17.1 17.7 17.2 18.1 17.8 18.3 19.0 19.6 19.3 19.3 19.4 20.0 20.4 20.6 20.7 21.2 21.0 21.5 21.7 22.2 21.1 20.8 20.5 19.8 20.8 19.8
15.1 15.6 15.8 16.2 16.4 17.1 16.5 16.8 17.0 17.5 18.3 18.6 17.8 18.1 18.8 18.3 18.4 18.8 19.1 19.8 20.4 20.2 19.8 19.5 19.3 19.1 19.0 18.9 19.9 20.6 20.8 21.6 22.0 21.9 21.8 22.1 22.5 21.5 21.6 21.1 20.7 21.7 20.7
16.4 18.5 17.0 16.5 16.5 16.7 16.8 17.3 17.7 18.1 18.7 19.3 20.2 20.5 19.2 19.0 20.7 21.2 21.2 21.6 21.6 21.4 21.1 20.5 20.4 20.2 20.2 20.2 20.1 20.1 20.2 20.6 21.2 21.5 22.1 22.2 22.5 21.8 22.1 22.1 21.9 21.8 20.6
15.6 16.3 18.1 16.5 16.8 17.5 17.8 18.2 18.6 19.0 19.5 19.8 20.7 22.3 23.7 20.9 21.8 22.1 22.5 23.1 23.0 22.7 22.8 22.2 21.5 21.2 21.2 21.4 21.4 21.4 21.3 21.1 21.2 21.8 21.8 22.3 22.9 22.7 22.0 21.8 21.9 21.6 21.1
15.6 16.2 16.7 17.5 18.0 18.5 18.8 19.2 19.7 20.2 20.9 21.2 21.3 21.9 24.2 22.3 22.6 23.2 23.5 24.5 23.9 23.5 23.1 23.3 23.1 22.7 22.8 23.5 23.2 22.9 23.0 22.6 21.4 21.5 22.1 22.8 22.6 22.2 22.6 22.6 22.9 22.7 22.0
15.9 16.6 17.4 18.1 18.7 21.2 20.3 20.4 20.9 21.4 22.3 23.0 22.8 23.0 23.1 23.7 24.5 24.5 25.1 25.6 24.8 25.2 25.0 25.0 25.2 25.3 24.5 24.9 24.4 23.6 23.4 23.0 22.6 22.6 23.3 23.0 22.8 22.8 23.2 23.5 23.4 23.5 23.6
16.7 17.6 18.4 19.8 20.3 21.1 21.5 22.2 22.5 24.3 23.7 24.1 24.5 24.4 25.0 25.2 25.3 26.2 26.6 26.4 26.3 26.2 26.2 26.9 26.7 27.0 27.4 27.0 25.8 24.7 23.5 23.8 23.3 22.6 24.0 23.8 23.3 23.2 23.7 23.9 23.6 24.1 23.6
17.8 18.9 19.7 20.5 21.6 22.3 23.1 23.0 23.9 24.7 24.7 25.4 25.8 26.2 25.9 25.7 26.0 26.9 27.1 27.2 28.1 28.1 28.2 28.4 28.2 28.3 28.3 29.3 28.2 27.0 26.5 27.2 26.3 24.3 23.7 23.2 23.6 24.4 24.1 24.2 24.4 23.8 23.7
19.2 19.9 21.1 21.7 22.8 23.4 23.6 24.2 24.9 25.2 26.1 26.6 27.1 27.3 27.5 27.3 27.4 28.2 28.3 28.3 29.4 29.6 29.5 29.2 29.2 30.0 29.9 28.3 26.9 27.6 29.0 27.9 26.1 24.8 24.3 22.8 23.7 23.8 23.9 24.6 24.6 24.3 23.9